Content
SEND FEEDBACK

Daily
Averages
Monthly
Summary
United Kingdom

BALLYKELLY, NORTHERN IRELAND


Home > Europe > United Kingdom > Northern Ireland
Elevation: 13 feet     Latitude: 55 03N     Longitude: 007 00W

WEATHER
 
SELECT A DAY
Number of Records: 133,007;   Date Range: 7/1/96 - 11/26/14
 
SHARE

PRINT THIS DATA

[ ← Previous Day ]
WEATHER ALMANAC - MAY 14, 2013
[ Next Day → ]
[ °C ]   °F
Weather ElementAverageHighLow
Temperature48.4 °F57.2 °F (2:50 pm)44.6 °F (8:50 am)
Dewpoint41.5 °F44.6 °F (4:20 pm)35.6 °F (2:50 pm)
Humidity77.8 %87 % (9:20 am)44 % (2:50 pm)
Barometer29.41 in29.47 in (7:50 pm)29.36 in (2:20 pm)
Wind Speed13.7 mph25.3 mph (8:50 am)
Wind Gust36.8 mph (8:50 am)
Weather ElementAverage
Visibility6.1 mi
Wind DirectionS (177.5 °)

Weather ElementTotal
Precipitation---
Heating Degree Days14.1 (Base 65)
Growing Degree Days0.9 (Base 50)
Averaged from 24 records on May 14, 2013
WEATHER CONDITIONS BREAKOUT
WIND DIRECTION BREAKOUT
WEATHER BY HOUR - MAY 14, 2013
[ °C ]   °F
Local TimeTemperatureDewpointHumidityBarometerVisibilityWind DirectionWind SpeedGust SpeedPrecipitationEventsConditions
8:50 AM44.6 °F39.2 °F81 %29.42 in6.2 miWSW (240°)25.3 mph36.8 mphRainRain
9:20 AM44.6 °F41.0 °F87 %29.42 in6.2 miWSW (240°)18.4 mphRainLight Rain
9:50 AM46.4 °F42.8 °F87 %29.42 in6.2 miWSW (240°)20.7 mphMostly Cloudy
10:20 AM46.4 °F42.8 °F87 %29.42 in6.2 miWSW (240°)16.1 mphScattered Clouds
10:50 AM48.2 °F42.8 °F82 %29.42 in6.2 miSW (230°)16.1 mphScattered Clouds
11:20 AM46.4 °F42.8 °F87 %29.42 in6.2 miSW (230°)16.1 mphMostly Cloudy
11:50 AM48.2 °F42.8 °F82 %29.39 in6.2 miSW (230°)15.0 mphMostly Cloudy
12:20 PM48.2 °F41.0 °F76 %29.39 in6.2 miNNW (340°)8.1 mphRainRain Showers
12:50 PM50.0 °F42.8 °F76 %29.39 in5.6 miNNE (30°)5.8 mphMostly Cloudy
1:20 PM53.6 °F41.0 °F62 %29.39 in6.2 miWest (260°)9.2 mphMostly Cloudy
1:50 PM51.8 °F39.2 °F62 %29.39 in6.2 miWest (260°)12.7 mphRainLight Rain Showers
2:20 PM55.4 °F39.2 °F54 %29.36 in6.2 miWest (270°)11.5 mphMostly Cloudy
2:50 PM57.2 °F35.6 °F44 %29.36 in6.2 miSW (230°)11.5 mphMostly Cloudy
3:20 PM55.4 °F41.0 °F58 %29.36 in6.2 miSW (230°)11.5 mphScattered Clouds
3:50 PM50.0 °F41.0 °F71 %29.39 in6.2 miWSW (240°)19.6 mphRainLight Rain Showers
4:20 PM48.2 °F44.6 °F87 %29.39 in6.2 miWest (260°)12.7 mphRainLight Rain Showers
4:50 PM46.4 °F41.0 °F81 %29.42 in6.2 miNNE (30°)15.0 mphRainLight Rain Showers
5:20 PM44.6 °F41.0 °F87 %29.42 in5.6 miNorth (10°)8.1 mphRainRain
5:50 PM46.4 °F42.8 °F87 %29.44 in5.6 miNorth (10°)8.1 mphRainLight Rain
6:20 PM44.6 °F41.0 °F87 %29.44 in5.6 miNorth (360°)11.5 mphRainRain
6:50 PM46.4 °F42.8 °F87 %29.44 in6.2 miNNE (30°)13.8 mphRainLight Rain
7:20 PM46.4 °F42.8 °F87 %29.44 in6.2 miNNE (30°)16.1 mphMostly Cloudy
7:50 PM46.4 °F42.8 °F87 %29.47 in6.2 miNorth (10°)13.8 mphMostly Cloudy
8:20 PM46.4 °F41.0 °F81 %29.47 in6.2 miNorth (10°)12.7 mphMostly Cloudy
Hourly data recorded from EGAE, located miles away from Ballykelly, Northern Ireland







STORIES FROM OUR PARTNERS